Terminal Aerodrome Forecast
Issued by NWS

Home | Current Version | Previous Version | Text Only | Print | Product List | Glossary On
Versions: 1 2 3 4 5 6 7 8 9 10 11 12 13 14 15 16 17 18 19 20 21 22 23 24 25 26 27
000
FTUS42 KCAE 300800 AAA
TAFOGB
TAF AMD
KOGB 300800Z 3008/3106 VRB03KT P6SM SCT250
     FM300900 10003KT 4SM BR SCT005 BKN010
     FM301500 12007KT P6SM SCT050
     FM310000 VRB03KT P6SM SCT100 BKN250=

USA.gov is the U.S. government's official web portal to all federal, state and local government web resources and services.